Simultaneous Nadir Overpasses (SNOs) Predictions

Prediction of SNOs between AQUA and METOP-B Satellite Orbit:

Table of predicted SNOs for the next 14.0 days since TLE Epoch: 5/15/2021
Index Date (AQUA) Time (AQUA) Lat,Lon (AQUA) SZA (AQUA ) Date (METOP-B) Time (METOP-B) Lat,Lon (METOP-B) SZA (METOP-B ) Distance(km) Time Diff (sec)
1 05/17/2021 09:13:39 -73.76,-144.07 125.68 05/17/2021 09:12:41 -73.77,-144.03 125.67 1.36 58
2 05/17/2021 10:03:07 73.81, 23.47 54.36 05/17/2021 10:03:20 73.80, 23.39 54.36 2.36 13
3 05/17/2021 10:52:43 -74.33,-170.08 125.10 05/17/2021 10:53:51 -74.34,-167.96 125.15 63.74 68
4 05/20/2021 04:47:54 -73.76, -77.63 126.29 05/20/2021 04:47:06 -73.76, -77.64 126.28 0.15 48
5 05/20/2021 05:37:22 73.81, 89.90 53.76 05/20/2021 05:37:44 73.84, 89.89 53.79 3.66 22
6 05/23/2021 00:22:09 -73.77, -11.21 126.84 05/23/2021 00:21:31 -73.76, -11.25 126.85 1.84 38
7 05/23/2021 01:11:37 73.82, 156.31 53.21 05/23/2021 01:12:09 73.83, 156.27 53.22 1.72 32
8 05/25/2021 19:56:23 -73.78, 55.20 127.34 05/25/2021 19:55:54 -73.80, 55.25 127.32 2.30 29
9 05/25/2021 20:45:51 73.84,-137.29 52.72 05/25/2021 20:46:32 73.87,-137.25 52.74 3.16 41
10 05/28/2021 14:40:57 73.03, -44.43 51.42 05/28/2021 14:39:52 73.02, -47.43 51.51 97.43 65
11 05/28/2021 15:30:38 -73.81, 121.59 127.78 05/28/2021 15:30:19 -73.79, 121.63 127.80 2.30 19
12 05/28/2021 16:20:06 73.87, -70.91 52.29 05/28/2021 16:20:57 73.85, -70.88 52.26 2.13 51



Historial Predications of SNOs between AQUA and METOP-B
